RH
36 35 36 37 36 36 35 35 37 38 39 40 39 36 34 32 30 26 23 19 17 16 15 14 12 11 11 10 10 9 9 9 9 9 11 12 13 14 14 12 9 8 9 9 13 19 18 15 18 18 17 17 17 17 16 14 11 12 12 12 13 11 11 11 14 13 10 14 13 14 11 13 19 12 18 27 29 36 34 38 50 51 47 50 54 53 52 48
37 36 36 37 37 36 34 32 33 35 36 37 36 35 34 33 32 29 26 22 19 18 17 16 14 12 11 11 10 10 9 9 10 9 9 11 12 13 13 12 10 8 9 8 12 17 16 17 18 18 19 21 19 16 15 15 12 12 12 11 12 11 13 13 15 15 12 14 14 14 13 16 21 17 20 26 30 31 32 42 51 52 50 50 54 51 48 45
36 36 36 37 38 36 34 32 32 34 36 35 33 34 36 35 34 32 28 25 21 19 18 17 16 14 13 11 11 10 10 11 13 12 10 11 11 11 11 11 9 9 9 8 11 14 14 19 21 21 21 21 19 16 17 17 13 12 11 11 12 12 15 16 16 16 14 14 15 14 13 19 25 23 21 23 30 31 31 42 48 50 47 45 47 47 46 41
34 35 35 38 39 37 35 33 32 32 34 35 33 33 37 38 36 35 32 28 23 20 19 19 18 17 14 13 12 10 13 14 14 12 11 11 11 11 10 10 10 9 9 9 12 13 14 20 23 23 22 20 19 17 18 18 14 12 12 11 12 12 15 17 15 14 15 14 14 14 11 17 25 23 21 22 28 31 32 38 43 47 47 42 42 43 44 40
32 32 32 35 38 39 38 35 33 31 30 31 32 32 35 39 39 37 34 31 26 22 20 20 18 18 16 15 13 12 15 15 14 13 11 11 11 11 10 9 10 10 10 11 12 12 14 19 21 22 21 19 21 20 18 18 16 14 11 11 13 14 14 15 13 13 15 14 13 13 10 16 24 20 20 26 30 35 35 36 43 49 50 45 43 43 42 41
31 31 30 31 34 37 38 37 36 34 29 27 29 31 33 38 40 39 37 32 28 24 22 21 20 19 18 17 15 14 17 17 17 17 13 12 11 11 11 10 9 10 10 11 12 11 13 17 19 21 20 20 22 23 20 19 17 15 12 11 15 15 15 14 12 14 15 13 12 12 11 15 21 16 18 30 33 39 39 36 45 51 51 49 47 45 42 41
31 32 31 29 30 32 34 36 37 34 30 26 28 30 32 36 39 40 39 34 29 26 23 22 21 20 19 18 17 18 21 18 18 19 16 14 12 11 11 10 9 10 9 11 11 10 12 15 17 19 19 19 22 24 22 20 18 15 13 14 16 16 15 14 13 16 14 12 12 12 12 12 14 12 16 28 32 39 43 41 46 50 53 53 51 48 45 45
31 32 32 31 29 29 31 32 31 30 28 28 29 30 31 35 37 38 39 34 29 26 24 23 22 21 21 19 21 23 21 17 15 17 17 15 13 12 11 10 10 10 9 10 11 10 11 13 15 17 18 19 21 23 23 22 19 16 14 14 16 15 14 14 16 17 13 11 11 11 10 8 11 14 17 25 30 37 45 46 47 50 54 53 52 51 51 50
32 32 32 32 31 29 28 27 26 25 26 30 32 32 32 33 35 35 35 33 29 26 25 24 23 23 21 20 24 26 22 17 17 17 16 15 16 13 11 12 10 9 10 10 11 10 11 12 13 15 16 19 21 22 22 22 21 17 14 14 16 16 15 15 16 16 13 11 11 9 9 9 11 14 18 24 27 33 41 45 49 51 52 52 50 52 52 49
33 33 32 31 32 30 29 27 24 23 25 30 34 34 34 33 34 33 31 30 28 26 25 24 25 24 23 26 29 26 22 20 20 20 18 17 19 16 13 14 13 10 10 11 11 10 11 11 11 13 15 19 21 21 20 20 20 19 17 15 15 16 16 14 14 14 12 11 12 10 10 12 11 14 21 23 25 30 35 41 48 50 49 50 48 48 48 48
34 33 33 32 31 31 30 27 25 24 25 30 33 34 34 33 34 33 30 27 25 26 26 25 26 24 26 34 34 27 22 22 24 23 19 18 19 19 16 16 14 12 12 11 11 10 11 11 11 12 14 17 19 19 19 19 19 21 21 18 15 15 15 14 13 12 11 12 13 11 11 14 11 13 19 20 21 24 28 37 45 47 49 50 51 50 48 50
34 34 34 32 32 32 30 28 25 24 26 31 33 32 34 34 34 33 31 26 23 24 25 26 27 25 30 37 34 28 25 24 27 25 21 19 17 18 17 17 16 13 12 12 10 10 11 12 11 12 14 15 17 18 19 19 20 22 22 20 18 14 14 15 13 12 12 13 13 12 12 14 11 12 15 16 20 21 25 36 41 44 48 49 52 54 52 53
35 35 34 33 32 32 31 28 26 25 27 31 32 32 32 33 34 33 31 26 23 21 23 26 26 28 38 38 29 27 27 26 28 25 21 20 17 18 18 18 18 15 13 12 12 12 12 12 11 11 14 15 16 16 17 18 20 22 21 21 20 16 14 15 14 13 15 15 14 12 13 14 12 12 17 18 20 22 25 36 43 44 48 49 49 51 52 55
37 36 35 34 33 32 31 29 26 26 28 31 32 33 32 31 31 31 30 26 24 21 22 25 25 31 41 36 27 25 26 26 26 23 21 19 18 18 18 18 18 16 14 13 14 14 12 12 12 11 14 15 15 14 15 18 19 21 22 21 20 18 16 14 14 14 15 16 15 13 13 14 12 13 19 20 23 24 25 35 44 44 44 48 50 51 53 56
43 39 37 36 34 33 31 29 27 26 28 29 30 31 30 30 29 29 27 24 22 21 21 22 23 33 41 33 28 27 24 25 25 24 22 19 18 17 18 18 18 17 15 14 16 16 13 13 12 12 13 13 14 16 17 17 19 20 21 21 19 18 17 14 14 13 13 15 16 13 13 15 16 20 23 22 24 23 26 35 40 40 41 46 52 55 57 58
50 43 41 39 37 35 33 30 28 25 26 29 29 28 26 26 26 26 26 24 23 21 21 25 24 32 37 31 29 28 25 25 24 24 23 20 18 17 17 18 18 18 16 15 17 18 15 13 12 12 13 13 14 17 18 18 19 19 19 21 20 17 15 15 15 13 13 15 16 13 14 18 20 24 24 23 23 21 29 38 36 39 43 44 51 59 61 60
54 45 44 43 40 38 35 33 30 27 26 28 29 27 24 24 24 23 24 23 23 23 23 29 31 32 32 27 28 28 26 26 26 24 23 20 19 17 17 18 19 20 18 16 19 21 17 15 14 14 13 13 13 15 19 21 20 20 20 19 20 16 14 17 17 14 14 15 15 13 17 24 24 23 21 20 23 21 29 39 38 40 44 44 49 56 60 60
51 44 46 49 45 41 39 35 32 28 26 28 28 26 26 28 27 26 27 24 25 30 30 32 35 33 29 25 26 27 26 26 26 25 23 21 20 17 18 19 19 21 21 20 21 23 20 17 16 15 12 12 13 14 19 22 19 20 22 19 19 17 14 18 19 16 16 15 16 14 16 26 30 27 22 21 24 24 28 38 40 39 44 48 47 50 57 59
46 44 48 53 50 45 42 38 33 29 27 28 28 27 28 32 32 30 32 30 30 34 31 29 32 29 26 25 24 25 26 26 25 24 23 21 20 18 18 20 21 22 24 24 23 23 22 20 17 15 13 11 12 13 15 19 18 19 21 18 18 17 14 17 20 19 18 16 17 15 15 26 33 31 27 23 24 27 32 38 43 43 47 52 50 52 59 61
46 48 49 54 54 48 45 40 34 30 28 31 33 33 31 34 35 35 38 35 30 29 25 25 29 25 22 25 26 24 25 27 26 24 23 22 21 19 19 23 25 24 25 24 24 23 21 21 18 15 14 11 12 12 13 17 18 18 21 18 16 17 15 16 21 21 19 18 18 17 20 29 35 35 34 31 28 30 35 41 50 52 50 52 54 56 59 59
45 52 53 55 54 50 46 41 35 30 29 32 38 37 32 37 43 44 47 43 33 28 24 25 31 27 22 24 28 28 24 24 26 26 24 23 22 20 21 25 27 26 25 23 23 22 21 20 18 15 13 12 13 13 14 16 18 21 24 21 16 18 18 17 21 24 22 21 21 22 26 35 42 44 45 42 38 40 45 48 53 54 52 53 55 59 59 58
40 50 55 57 55 50 47 42 35 30 30 35 40 39 35 43 49 47 49 48 41 35 27 27 32 29 23 25 29 30 27 23 25 27 25 24 23 21 23 27 28 26 25 24 23 23 22 20 18 15 13 14 15 15 15 16 18 20 26 26 20 19 20 18 20 24 24 24 24 26 31 40 48 52 53 52 47 47 51 54 54 55 55 56 59 63 60 57
47 51 53 59 58 51 47 42 35 31 34 39 42 40 40 46 49 46 49 48 45 42 33 28 31 28 24 26 27 28 29 26 26 26 25 24 23 22 24 28 28 26 25 24 23 23 22 19 18 16 14 14 17 18 16 17 19 18 23 27 22 21 21 19 19 21 25 27 24 27 35 41 47 52 55 54 49 44 45 49 53 56 57 57 60 61 57 56
58 60 55 58 59 54 48 41 34 33 38 42 42 39 42 48 48 45 46 46 42 40 36 32 30 27 24 27 27 26 29 29 27 25 24 24 23 22 24 28 29 27 26 24 23 24 23 20 18 17 15 15 17 19 18 17 20 19 21 25 23 21 21 19 19 21 26 28 22 26 39 43 45 53 55 50 47 43 42 46 49 52 55 55 55 53 52 53
63 63 56 58 62 59 51 41 34 36 43 45 43 39 38 43 47 45 44 45 39 32 34 35 32 25 23 27 27 26 28 28 27 25 22 23 23 22 23 28 30 29 28 25 24 26 26 24 20 17 17 17 17 18 19 18 19 21 20 21 21 22 21 19 21 23 27 27 21 26 44 51 51 56 56 50 47 44 43 44 44 46 49 49 48 47 47 48
64 61 58 59 63 63 53 43 42 47 48 44 43 44 41 41 46 45 43 44 38 28 26 29 31 28 23 24 26 26 27 26 25 26 25 24 24 22 23 27 29 31 31 28 26 26 27 26 23 19 18 18 18 16 17 18 20 22 21 18 21 23 20 19 22 24 26 26 23 25 39 51 55 57 55 50 48 45 43 42 40 41 43 42 43 43 44 45
65 65 61 59 65 65 53 49 56 59 55 50 49 50 48 46 45 41 43 47 37 25 23 24 28 29 22 22 25 25 25 23 24 29 29 26 24 22 24 27 29 31 32 31 29 28 27 27 25 22 18 18 18 16 17 19 20 21 20 18 20 21 19 18 22 24 24 27 28 26 30 41 48 50 51 49 48 48 49 46 40 38 40 40 40 40 42 43
70 67 60 61 67 62 50 51 64 67 63 61 57 54 49 45 45 45 51 55 40 24 23 23 26 27 24 23 23 23 24 24 25 27 30 28 25 22 24 29 31 31 32 32 31 29 28 27 26 22 19 18 17 16 18 19 19 19 20 18 16 18 19 18 21 24 25 29 31 30 32 36 41 47 51 51 51 53 54 52 45 38 38 39 38 39 41 43
76 69 64 66 65 55 45 48 62 68 67 69 65 59 53 47 52 57 59 53 38 29 27 26 26 27 26 25 23 22 24 26 24 24 29 30 25 23 23 28 33 32 33 33 30 30 28 26 26 24 19 18 18 17 17 19 18 18 21 22 16 16 20 19 20 24 29 35 34 32 33 34 42 52 54 54 55 56 55 52 47 42 42 41 37 37 41 42
82 76 71 67 59 51 44 47 61 68 69 72 68 62 61 56 57 66 66 50 36 34 33 30 29 27 26 25 24 24 24 26 25 25 31 31 25 24 24 27 33 33 33 34 30 31 33 28 26 27 22 18 18 16 16 19 20 18 21 26 22 18 20 22 22 23 31 39 34 33 36 36 46 58 57 54 55 56 55 51 47 46 46 44 38 37 39 40
85 80 73 64 54 50 49 54 64 67 69 71 63 60 64 61 60 66 60 44 38 39 35 32 32 29 27 25 24 25 25 27 27 26 32 32 26 25 24 28 33 33 33 33 29 31 39 35 26 27 26 20 18 17 18 21 21 18 18 25 27 23 20 23 25 26 35 38 30 32 36 35 46 59 60 58 58 58 56 52 49 48 48 47 44 41 39 38
85 81 72 59 50 51 57 63 65 64 66 66 60 59 64 64 66 64 49 37 44 46 38 37 37 33 29 27 27 26 26 28 26 26 32 30 25 23 23 27 31 33 33 31 30 32 39 39 28 26 27 22 20 21 20 21 20 17 16 24 31 29 24 25 25 29 35 32 28 31 34 40 52 59 59 61 62 61 58 54 54 52 50 48 46 45 42 37
82 76 66 53 47 54 66 71 71 67 64 63 61 60 65 67 63 57 48 43 48 48 44 44 41 36 33 31 31 28 26 29 26 25 31 30 26 24 23 26 30 33 31 29 34 37 39 39 32 28 28 25 24 22 20 19 17 16 17 23 31 34 32 30 27 29 31 30 30 28 30 49 66 67 64 65 66 65 62 59 58 57 53 49 48 49 45 39
78 70 60 51 48 58 72 76 73 69 64 61 60 62 70 68 54 49 51 49 49 50 49 48 44 39 37 35 35 30 26 29 26 24 30 30 28 26 23 25 29 31 30 29 34 38 39 37 31 29 29 29 26 21 19 19 18 17 16 19 29 35 36 32 27 27 29 30 29 26 34 56 70 72 69 66 67 67 64 61 59 58 55 51 50 50 46 41
76 67 59 55 56 64 76 76 69 66 64 58 60 67 67 60 50 50 54 52 53 56 53 50 46 41 39 39 38 31 26 28 27 25 28 29 29 27 23 24 28 30 31 32 32 32 34 34 30 30 31 30 27 21 20 22 21 18 16 20 28 33 33 32 29 28 32 33 31 38 56 67 70 74 71 65 67 67 64 61 59 59 55 50 50 50 46 44
74 67 61 62 66 71 77 75 68 66 62 56 64 69 60 55 59 59 60 60 60 63 60 52 47 44 42 40 37 31 26 27 27 26 27 28 27 27 25 24 26 29 29 31 32 32 33 34 33 35 33 29 27 23 19 22 23 20 17 20 26 31 33 35 34 32 35 39 39 51 71 75 73 78 76 71 71 69 64 62 60 60 57 50 52 54 50 47
71 68 68 69 72 74 74 73 69 62 57 59 69 68 60 64 70 67 67 69 66 69 69 57 48 46 44 40 37 30 25 27 31 28 26 27 26 26 26 24 25 27 29 33 36 35 35 36 36 38 36 29 26 24 20 21 27 26 20 17 25 34 34 34 37 37 37 39 41 55 70 71 70 76 78 75 74 71 67 64 61 61 58 53 56 58 55 52
80 82 83 77 73 75 73 71 66 55 54 65 73 71 69 75 78 72 71 73 72 75 76 67 57 51 46 43 40 32 24 28 35 31 28 29 26 25 26 24 24 25 29 37 42 39 37 38 38 39 38 33 28 24 22 25 29 30 26 22 27 34 33 32 36 40 40 37 42 61 71 64 63 71 75 73 71 70 69 66 64 62 59 57 59 61 58 55
92 95 91 74 69 73 71 67 61 53 57 68 73 74 75 76 78 76 72 74 76 77 79 75 65 57 50 45 42 36 26 27 33 33 33 32 27 25 25 24 24 23 26 35 42 42 39 38 39 39 39 39 34 26 23 24 26 29 31 29 29 30 31 31 32 36 41 37 44 67 76 66 64 67 68 68 69 69 70 69 68 66 62 60 60 63 62 58
92 92 82 68 68 71 67 64 59 57 63 67 71 75 75 73 74 74 72 75 77 77 79 80 73 66 58 48 43 39 29 26 31 34 36 36 32 29 26 24 24 22 24 31 37 41 41 39 40 41 41 41 36 27 24 25 28 32 33 33 33 29 29 32 31 31 37 37 43 61 72 71 70 68 66 68 72 72 70 69 68 65 64 61 60 63 63 59
96 91 75 68 74 70 63 64 62 62 68 71 72 74 73 72 73 73 72 74 75 74 77 80 78 71 64 56 49 42 31 28 33 37 39 41 40 36 29 25 23 21 25 34 39 41 42 40 41 42 42 37 32 28 27 26 28 31 31 32 33 29 28 34 36 32 33 37 39 47 65 75 71 70 73 72 72 73 70 68 66 63 62 62 61 62 63 61
101 96 76 67 74 69 60 63 66 68 72 75 74 72 71 72 73 73 71 70 69 67 71 76 76 72 67 60 55 46 34 30 36 41 40 42 42 37 31 26 23 23 27 35 40 41 43 44 43 43 40 34 32 34 31 26 26 30 30 32 32 30 29 32 35 34 32 35 36 44 68 82 76 75 79 73 71 74 71 68 67 64 63 64 64 63 63 62
101 97 78 66 69 68 61 64 71 73 72 74 73 69 69 71 74 76 72 68 66 64 68 72 73 72 67 59 56 52 39 30 36 42 42 42 41 38 35 30 27 29 30 34 40 42 46 47 44 42 40 36 37 39 33 26 26 30 32 31 29 29 29 29 29 32 33 35 38 50 73 84 80 81 81 74 73 75 74 71 69 67 66 65 66 66 65 64
98 93 83 73 71 69 67 68 74 75 72 73 71 67 67 69 73 77 73 68 65 63 66 70 71 71 66 58 55 52 43 35 36 40 44 45 41 39 39 34 33 35 34 35 40 41 45 47 42 43 46 44 43 43 37 29 25 27 31 30 25 24 27 29 29 33 37 36 36 51 73 81 78 79 80 77 77 77 75 73 70 70 69 66 67 68 67 66
96 89 83 81 78 75 73 72 77 79 76 75 70 66 69 72 73 73 70 68 64 60 63 69 71 71 68 64 58 50 45 42 38 40 46 46 42 41 40 37 37 39 36 38 41 40 44 47 44 43 46 45 41 39 36 30 23 25 29 29 27 23 26 31 31 33 37 34 38 55 75 85 82 77 78 78 78 77 77 75 73 72 70 68 68 68 67 67
95 88 80 80 80 78 77 76 81 83 79 78 74 68 73 79 75 68 65 64 61 59 62 67 71 74 73 71 65 53 46 44 41 44 49 47 45 43 41 39 40 39 38 41 43 41 44 48 46 42 41 42 40 35 33 29 26 27 30 34 33 27 28 33 33 32 32 36 52 65 68 79 85 80 77 79 78 78 78 77 75 74 73 72 70 68 67 66
94 86 76 73 72 73 75 76 77 76 76 79 76 70 74 79 74 68 64 61 60 61 65 68 73 78 75 71 66 56 50 46 42 45 50 48 47 46 42 40 40 41 42 42 42 42 45 48 48 44 44 47 46 40 36 33 31 30 31 34 34 30 30 33 33 34 34 41 64 71 61 68 81 79 77 80 79 79 79 77 77 76 75 74 70 68 66 65
89 78 70 67 67 70 72 70 68 70 76 79 73 70 75 76 72 69 64 61 61 64 69 71 72 75 73 67 63 57 55 52 45 48 53 51 49 48 43 40 41 42 43 42 41 42 45 48 51 51 50 50 49 44 41 38 36 36 36 34 34 34 33 31 35 43 43 45 61 69 64 68 76 77 79 80 78 77 77 77 77 76 75 74 70 67 65 64
83 78 73 67 68 70 71 71 71 71 76 77 70 68 73 73 70 69 66 66 67 66 70 73 72 72 70 64 61 60 61 61 58 58 59 56 55 51 45 42 41 41 42 42 41 41 42 47 53 54 52 51 51 50 47 45 41 41 40 35 34 38 36 32 40 50 50 51 56 60 64 70 73 74 77 78 77 76 73 73 73 72 73 72 68 65 63 63
86 89 84 76 75 76 76 79 79 75 74 73 68 65 65 66 69 71 70 71 70 68 69 71 72 71 69 65 63 61 61 65 69 69 63 60 61 57 49 45 42 42 42 42 41 40 41 47 52 54 55 55 56 55 53 55 52 45 42 40 40 44 45 45 51 54 52 57 59 57 63 73 73 72 75 77 77 75 71 69 67 66 66 64 61 59 58 58
90 92 88 86 88 86 85 87 84 80 76 70 66 63 62 65 70 71 71 67 66 67 68 69 70 70 70 69 65 63 63 65 71 73 66 61 61 59 54 48 46 46 43 41 42 40 41 49 54 55 59 58 57 59 61 62 61 58 58 59 56 54 57 61 65 60 54 60 64 61 64 71 71 70 74 79 77 73 68 65 63 63 63 62 60 58 57 57
90 90 89 92 95 93 94 94 90 86 82 76 74 73 72 75 73 71 70 64 60 61 62 63 66 69 72 71 67 66 66 64 67 74 73 67 62 59 56 51 49 48 44 43 48 46 44 54 60 58 59 61 61 63 65 65 67 71 74 71 64 62 64 70 73 68 63 64 65 63 62 65 65 65 71 77 76 71 68 65 64 64 63 63 63 61 60 60